Time,TemperatureF,DewpointF,PressureIn,WindDirection,WindDirectionDegrees,WindSpeedMPH,WindSpeedGustMPH,Humidity,HourlyPrecipIn,Conditions,Clouds,dailyrainin,SoftwareType,DateUTC
2013-04-25 00:01:00,32.0,17.0,30.29,South,177,8.0,18.0,53,0.00,,,0.00,,2013-04-25 07:01:00,
2013-04-25 00:11:00,32.0,18.0,30.29,South,172,12.0,18.0,55,0.00,,,0.00,,2013-04-25 07:11:00,
2013-04-25 00:21:00,32.0,18.0,30.29,South,172,12.0,18.0,55,0.00,,,0.00,,2013-04-25 07:21:00,
2013-04-25 00:31:00,32.0,18.0,30.28,South,173,11.0,19.0,55,0.00,,,0.00,,2013-04-25 07:31:00,
2013-04-25 00:41:00,32.0,18.0,30.28,South,173,11.0,19.0,55,0.00,,,0.00,,2013-04-25 07:41:00,
2013-04-25 00:52:00,32.0,18.0,30.28,South,181,13.0,22.0,55,0.00,,,0.00,,2013-04-25 07:52:00,
2013-04-25 01:01:00,31.0,18.0,30.28,South,175,11.0,19.0,58,0.00,,,0.00,,2013-04-25 08:01:00,
2013-04-25 01:11:00,31.0,18.0,30.28,South,175,11.0,19.0,58,0.00,,,0.00,,2013-04-25 08:11:00,
2013-04-25 01:21:00,31.0,18.0,30.28,South,176,11.0,19.0,59,0.00,,,0.00,,2013-04-25 08:21:00,
2013-04-25 01:31:00,31.0,20.0,30.27,South,177,11.0,19.0,62,0.00,,,0.00,,2013-04-25 08:31:00,
2013-04-25 01:41:00,31.0,20.0,30.27,South,177,11.0,19.0,62,0.00,,,0.00,,2013-04-25 08:41:00,
2013-04-25 01:52:00,31.0,21.0,30.27,South,173,11.0,19.0,65,0.00,,,0.00,,2013-04-25 08:52:00,
2013-04-25 02:01:00,31.0,21.0,30.26,South,173,11.0,17.0,66,0.00,,,0.00,,2013-04-25 09:01:00,
2013-04-25 02:11:00,31.0,21.0,30.26,South,173,11.0,17.0,66,0.00,,,0.00,,2013-04-25 09:11:00,
2013-04-25 02:21:00,31.0,21.0,30.25,South,176,10.0,18.0,67,0.00,,,0.00,,2013-04-25 09:21:00,
2013-04-25 02:32:00,31.0,21.0,30.24,South,176,10.0,17.0,67,0.00,,,0.00,,2013-04-25 09:32:00,
2013-04-25 02:42:00,31.0,21.0,30.24,South,176,10.0,17.0,67,0.00,,,0.00,,2013-04-25 09:42:00,
2013-04-25 02:52:00,31.0,21.0,30.24,South,179,14.0,22.0,67,0.00,,,0.00,,2013-04-25 09:52:00,
2013-04-25 03:02:00,30.0,20.0,30.26,South,176,11.0,20.0,66,0.00,,,0.00,,2013-04-25 10:02:00,
2013-04-25 03:11:00,30.0,20.0,30.26,South,176,11.0,20.0,66,0.00,,,0.00,,2013-04-25 10:11:00,
2013-04-25 03:22:00,30.0,21.0,30.25,South,176,14.0,22.0,68,0.00,,,0.00,,2013-04-25 10:22:00,
2013-04-25 03:32:00,31.0,22.0,30.25,South,179,13.0,22.0,68,0.00,,,0.00,,2013-04-25 10:32:00,
2013-04-25 03:52:00,30.0,21.0,30.25,South,176,14.0,22.0,68,0.00,,,0.00,,2013-04-25 10:52:00,
2013-04-25 04:02:00,30.0,21.0,30.25,South,177,14.0,22.0,69,0.00,,,0.00,,2013-04-25 11:02:00,
2013-04-25 04:11:00,30.0,21.0,30.25,South,177,14.0,22.0,69,0.00,,,0.00,,2013-04-25 11:11:00,
2013-04-25 04:22:00,30.0,21.0,30.24,South,178,13.0,20.0,70,0.00,,,0.00,,2013-04-25 11:22:00,
2013-04-25 04:32:00,30.0,21.0,30.24,South,172,13.0,20.0,70,0.00,,,0.00,,2013-04-25 11:32:00,
2013-04-25 04:52:00,30.0,22.0,30.23,South,174,14.0,20.0,71,0.00,,,0.00,,2013-04-25 11:52:00,
2013-04-25 05:01:00,29.0,20.0,30.23,South,174,10.0,18.0,70,0.00,,,0.00,,2013-04-25 12:01:00,
2013-04-25 05:12:00,29.0,20.0,30.23,South,174,10.0,18.0,70,0.00,,,0.00,,2013-04-25 12:12:00,
2013-04-25 05:21:00,28.0,19.0,30.23,South,173,10.0,19.0,69,0.00,,,0.00,,2013-04-25 12:21:00,
2013-04-25 05:31:00,28.0,20.0,30.23,South,172,10.0,20.0,71,0.00,,,0.00,,2013-04-25 12:31:00,
2013-04-25 05:51:00,28.0,20.0,30.22,SSE,162,12.0,23.0,72,0.00,,,0.00,,2013-04-25 12:51:00,
2013-04-25 06:02:00,28.0,21.0,30.23,South,172,11.0,21.0,74,0.00,,,0.00,,2013-04-25 13:02:00,
2013-04-25 06:11:00,28.0,21.0,30.23,South,172,11.0,21.0,74,0.00,,,0.00,,2013-04-25 13:11:00,
2013-04-25 06:21:00,28.0,21.0,30.23,South,179,11.0,20.0,74,0.00,,,0.00,,2013-04-25 13:21:00,
2013-04-25 06:31:00,28.0,20.0,30.24,South,175,10.0,20.0,73,0.00,,,0.00,,2013-04-25 13:31:00,
2013-04-25 06:52:00,28.0,20.0,30.23,South,173,8.0,22.0,70,0.00,,,0.00,,2013-04-25 13:52:00,
2013-04-25 07:01:00,28.0,18.0,30.21,South,172,12.0,19.0,66,0.00,,,0.00,,2013-04-25 14:01:00,
2013-04-25 07:11:00,28.0,18.0,30.21,South,172,12.0,19.0,66,0.00,,,0.00,,2013-04-25 14:11:00,
2013-04-25 07:21:00,28.0,18.0,30.22,SSE,157,10.0,20.0,66,0.00,,,0.00,,2013-04-25 14:21:00,
2013-04-25 07:32:00,28.0,17.0,30.22,SSE,168,10.0,19.0,64,0.00,,,0.00,,2013-04-25 14:32:00,
2013-04-25 07:52:00,28.0,14.0,30.22,South,176,10.0,17.0,55,0.00,,,0.00,,2013-04-25 14:52:00,
2013-04-25 08:01:00,28.0,11.0,30.22,SSE,156,12.0,22.0,49,0.00,,,0.00,,2013-04-25 15:01:00,
2013-04-25 08:11:00,28.0,11.0,30.22,SSE,156,12.0,22.0,49,0.00,,,0.00,,2013-04-25 15:11:00,
2013-04-25 08:21:00,29.0,12.0,30.22,SSE,165,12.0,21.0,49,0.00,,,0.00,,2013-04-25 15:21:00,
2013-04-25 08:32:00,29.0,14.0,30.23,South,177,10.0,19.0,53,0.00,,,0.00,,2013-04-25 15:32:00,
2013-04-25 08:42:00,29.0,14.0,30.23,South,177,10.0,19.0,53,0.00,,,0.00,,2013-04-25 15:42:00,
2013-04-25 08:53:00,29.0,14.0,30.23,South,178,13.0,24.0,52,0.00,,,0.00,,2013-04-25 15:53:00,
2013-04-25 09:02:00,30.0,15.0,30.23,South,179,9.0,18.0,54,0.00,,,0.00,,2013-04-25 16:02:00,
2013-04-25 09:13:00,30.0,15.0,30.23,South,179,9.0,18.0,54,0.00,,,0.00,,2013-04-25 16:13:00,
2013-04-25 09:24:00,30.0,15.0,30.23,South,174,11.0,20.0,52,0.00,,,0.00,,2013-04-25 16:24:00,
2013-04-25 09:32:00,31.0,13.0,30.23,SSE,166,9.0,18.0,47,0.00,,,0.00,,2013-04-25 16:32:00,
2013-04-25 09:42:00,31.0,13.0,30.23,SSE,166,9.0,18.0,47,0.00,,,0.00,,2013-04-25 16:42:00,
2013-04-25 09:52:00,32.0,12.0,30.24,South,178,9.0,19.0,43,0.00,,,0.00,,2013-04-25 16:52:00,
2013-04-25 10:02:00,32.0,14.0,30.24,South,179,10.0,19.0,46,0.00,,,0.00,,2013-04-25 17:02:00,
2013-04-25 10:11:00,32.0,14.0,30.24,South,179,10.0,19.0,46,0.00,,,0.00,,2013-04-25 17:11:00,
2013-04-25 10:22:00,32.0,13.0,30.24,South,180,7.0,22.0,45,0.00,,,0.00,,2013-04-25 17:22:00,
2013-04-25 10:31:00,32.0,15.0,30.24,South,186,6.0,15.0,48,0.00,,,0.00,,2013-04-25 17:31:00,
2013-04-25 10:41:00,32.0,15.0,30.24,South,186,6.0,15.0,48,0.00,,,0.00,,2013-04-25 17:41:00,
2013-04-25 10:53:00,32.0,15.0,30.24,South,182,7.0,18.0,48,0.00,,,0.00,,2013-04-25 17:53:00,
2013-04-25 11:01:00,32.0,14.0,30.24,South,174,10.0,21.0,47,0.00,,,0.00,,2013-04-25 18:01:00,
2013-04-25 11:11:00,32.0,14.0,30.24,South,174,10.0,21.0,47,0.00,,,0.00,,2013-04-25 18:11:00,
2013-04-25 11:21:00,34.0,16.0,30.23,South,175,8.0,24.0,48,0.00,,,0.00,,2013-04-25 18:21:00,
2013-04-25 11:31:00,34.0,15.0,30.24,SSW,196,11.0,29.0,45,0.00,,,0.00,,2013-04-25 18:31:00,
2013-04-25 11:42:00,34.0,15.0,30.24,SSW,196,11.0,29.0,45,0.00,,,0.00,,2013-04-25 18:42:00,
2013-04-25 11:52:00,32.0,13.0,30.24,South,191,14.0,28.0,45,0.00,,,0.00,,2013-04-25 18:52:00,
2013-04-25 12:01:00,35.0,12.0,30.22,South,186,11.0,21.0,38,0.00,,,0.00,,2013-04-25 19:01:00,
2013-04-25 12:11:00,35.0,12.0,30.22,South,186,11.0,21.0,38,0.00,,,0.00,,2013-04-25 19:11:00,
2013-04-25 12:21:00,32.0,14.0,30.23,South,183,11.0,26.0,47,0.00,,,0.00,,2013-04-25 19:21:00,
2013-04-25 12:31:00,34.0,14.0,30.23,South,184,12.0,27.0,43,0.00,,,0.00,,2013-04-25 19:31:00,
2013-04-25 12:41:00,34.0,14.0,30.23,South,184,12.0,27.0,43,0.00,,,0.00,,2013-04-25 19:41:00,
2013-04-25 12:52:00,34.0,15.0,30.22,South,184,15.0,24.0,46,0.00,,,0.00,,2013-04-25 19:52:00,
2013-04-25 13:01:00,35.0,13.0,30.23,South,180,12.0,28.0,40,0.00,,,0.00,,2013-04-25 20:01:00,
2013-04-25 13:11:00,35.0,13.0,30.23,South,180,12.0,28.0,40,0.00,,,0.00,,2013-04-25 20:11:00,
2013-04-25 13:21:00,33.0,15.0,30.23,SSW,193,10.0,21.0,48,0.00,,,0.00,,2013-04-25 20:21:00,
2013-04-25 13:31:00,34.0,16.0,30.23,South,190,15.0,22.0,48,0.00,,,0.00,,2013-04-25 20:31:00,
2013-04-25 13:42:00,34.0,16.0,30.23,South,190,15.0,22.0,48,0.00,,,0.00,,2013-04-25 20:42:00,
2013-04-25 13:52:00,33.0,16.0,30.23,SSW,193,10.0,22.0,50,0.00,,,0.00,,2013-04-25 20:52:00,
2013-04-25 14:01:00,34.0,16.0,30.23,South,187,14.0,26.0,48,0.00,,,0.00,,2013-04-25 21:01:00,
2013-04-25 14:11:00,34.0,16.0,30.23,South,187,14.0,26.0,48,0.00,,,0.00,,2013-04-25 21:11:00,
2013-04-25 14:21:00,31.0,14.0,30.23,South,178,7.0,20.0,49,0.00,,,0.00,,2013-04-25 21:21:00,
2013-04-25 14:32:00,31.0,16.0,30.23,South,185,9.0,22.0,54,0.00,,,0.00,,2013-04-25 21:32:00,
2013-04-25 14:42:00,31.0,16.0,30.23,South,185,9.0,22.0,54,0.00,,,0.00,,2013-04-25 21:42:00,
2013-04-25 14:52:00,29.0,16.0,30.23,South,185,7.0,22.0,59,0.00,,,0.00,,2013-04-25 21:52:00,
2013-04-25 15:02:00,27.0,17.0,30.24,ESE,109,3.0,13.0,65,0.00,,,0.00,,2013-04-25 22:02:00,
2013-04-25 15:12:00,27.0,17.0,30.24,ESE,109,3.0,13.0,65,0.00,,,0.00,,2013-04-25 22:12:00,
2013-04-25 15:22:00,30.0,15.0,30.22,South,185,4.0,15.0,53,0.00,,,0.00,,2013-04-25 22:22:00,
2013-04-25 15:32:00,34.0,14.0,30.22,SSW,206,6.0,18.0,43,0.00,,,0.00,,2013-04-25 22:32:00,
2013-04-25 15:42:00,34.0,14.0,30.22,SSW,206,6.0,18.0,43,0.00,,,0.00,,2013-04-25 22:42:00,
2013-04-25 15:52:00,34.0,13.0,30.23,South,186,7.0,16.0,41,0.00,,,0.00,,2013-04-25 22:52:00,
2013-04-25 16:02:00,32.0,13.0,30.23,SSW,204,11.0,18.0,44,0.00,,,0.00,,2013-04-25 23:02:00,
2013-04-25 16:12:00,32.0,13.0,30.23,SSW,204,11.0,18.0,44,0.00,,,0.00,,2013-04-25 23:12:00,
2013-04-25 16:21:00,33.0,13.0,30.24,SSW,210,8.0,17.0,43,0.00,,,0.00,,2013-04-25 23:21:00,
2013-04-25 16:32:00,34.0,16.0,30.25,WSW,253,8.0,18.0,47,0.00,,,0.00,,2013-04-25 23:32:00,
2013-04-25 16:41:00,34.0,16.0,30.25,WSW,253,8.0,18.0,47,0.00,,,0.00,,2013-04-25 23:41:00,
2013-04-25 16:52:00,36.0,15.0,30.26,WSW,255,10.0,18.0,41,0.00,,,0.00,,2013-04-25 23:52:00,
2013-04-25 17:01:00,35.0,14.0,30.25,WSW,246,6.0,11.0,42,0.00,,,0.00,,2013-04-26 00:01:00,
2013-04-25 17:11:00,35.0,14.0,30.25,WSW,246,6.0,11.0,42,0.00,,,0.00,,2013-04-26 00:11:00,
2013-04-25 17:21:00,36.0,15.0,30.23,SW,229,11.0,18.0,41,0.00,,,0.00,,2013-04-26 00:21:00,
2013-04-25 17:31:00,36.0,15.0,30.23,SW,229,11.0,18.0,41,0.00,,,0.00,,2013-04-26 00:31:00,
2013-04-25 17:41:00,36.0,15.0,30.23,SW,229,11.0,18.0,41,0.00,,,0.00,,2013-04-26 00:41:00,
2013-04-25 17:51:00,34.0,14.0,30.25,WSW,257,8.0,15.0,44,0.00,,,0.00,,2013-04-26 00:51:00,
2013-04-25 18:01:00,33.0,15.0,30.26,West,262,8.0,12.0,48,0.00,,,0.00,,2013-04-26 01:01:00,
2013-04-25 18:11:00,33.0,15.0,30.26,West,262,8.0,12.0,48,0.00,,,0.00,,2013-04-26 01:11:00,
2013-04-25 18:21:00,32.0,15.0,30.26,SW,233,5.0,11.0,49,0.00,,,0.00,,2013-04-26 01:21:00,
2013-04-25 18:31:00,32.0,16.0,30.26,West,260,8.0,12.0,51,0.00,,,0.00,,2013-04-26 01:31:00,
2013-04-25 18:41:00,32.0,16.0,30.26,West,260,8.0,12.0,51,0.00,,,0.00,,2013-04-26 01:41:00,
2013-04-25 18:52:00,33.0,17.0,30.26,West,274,10.0,18.0,52,0.00,,,0.00,,2013-04-26 01:52:00,
2013-04-25 19:01:00,33.0,17.0,30.27,West,266,9.0,22.0,52,0.00,,,0.00,,2013-04-26 02:01:00,
2013-04-25 19:11:00,33.0,17.0,30.27,West,266,9.0,22.0,52,0.00,,,0.00,,2013-04-26 02:11:00,
2013-04-25 19:21:00,32.0,16.0,30.27,West,281,10.0,20.0,52,0.00,,,0.00,,2013-04-26 02:21:00,
2013-04-25 19:31:00,31.0,17.0,30.28,WNW,303,6.0,14.0,55,0.00,,,0.00,,2013-04-26 02:31:00,
2013-04-25 19:41:00,31.0,17.0,30.28,WNW,303,6.0,14.0,55,0.00,,,0.00,,2013-04-26 02:41:00,
2013-04-25 19:51:00,30.0,16.0,30.28,WNW,297,6.0,11.0,56,0.00,,,0.00,,2013-04-26 02:51:00,
2013-04-25 20:01:00,29.0,19.0,30.29,WSW,251,6.0,13.0,65,0.00,,,0.00,,2013-04-26 03:01:00,
2013-04-25 20:11:00,29.0,19.0,30.29,WSW,251,6.0,13.0,65,0.00,,,0.00,,2013-04-26 03:11:00,
2013-04-25 20:21:00,29.0,20.0,30.30,SW,231,6.0,12.0,70,0.00,,,0.00,,2013-04-26 03:21:00,
2013-04-25 20:32:00,28.0,20.0,30.31,SW,226,7.0,14.0,73,0.00,,,0.00,,2013-04-26 03:32:00,
2013-04-25 20:43:00,28.0,20.0,30.31,SW,226,7.0,14.0,73,0.00,,,0.00,,2013-04-26 03:43:00,
2013-04-25 20:53:00,28.0,21.0,30.31,SW,223,4.0,12.0,74,0.00,,,0.00,,2013-04-26 03:53:00,
2013-04-25 21:02:00,28.0,21.0,30.32,SSW,212,6.0,12.0,76,0.00,,,0.00,,2013-04-26 04:02:00,
2013-04-25 21:12:00,28.0,21.0,30.32,SSW,212,6.0,12.0,76,0.00,,,0.00,,2013-04-26 04:12:00,
2013-04-25 21:22:00,28.0,22.0,30.33,SW,223,8.0,14.0,77,0.00,,,0.00,,2013-04-26 04:22:00,
2013-04-25 21:32:00,28.0,22.0,30.34,SW,220,7.0,14.0,77,0.00,,,0.00,,2013-04-26 04:32:00,
2013-04-25 21:42:00,28.0,22.0,30.34,SW,220,7.0,14.0,77,0.00,,,0.00,,2013-04-26 04:42:00,
2013-04-25 21:53:00,27.0,21.0,30.35,WSW,238,6.0,11.0,77,0.00,,,0.00,,2013-04-26 04:53:00,
2013-04-25 22:02:00,27.0,21.0,30.35,SW,222,7.0,13.0,77,0.00,,,0.00,,2013-04-26 05:02:00,
2013-04-25 22:12:00,27.0,21.0,30.35,SW,222,7.0,13.0,77,0.00,,,0.00,,2013-04-26 05:12:00,
2013-04-25 22:22:00,27.0,21.0,30.35,SW,214,6.0,14.0,77,0.00,,,0.00,,2013-04-26 05:22:00,
2013-04-25 22:32:00,27.0,21.0,30.35,WSW,241,9.0,14.0,77,0.00,,,0.00,,2013-04-26 05:32:00,
2013-04-25 22:41:00,27.0,21.0,30.35,WSW,241,9.0,14.0,77,0.00,,,0.00,,2013-04-26 05:41:00,
2013-04-25 22:52:00,27.0,20.0,30.35,WSW,237,6.0,12.0,76,0.00,,,0.00,,2013-04-26 05:52:00,
2013-04-25 23:02:00,27.0,20.0,30.36,WSW,246,4.0,15.0,75,0.00,,,0.00,,2013-04-26 06:02:00,
2013-04-25 23:11:00,27.0,20.0,30.36,WSW,246,4.0,15.0,75,0.00,,,0.00,,2013-04-26 06:11:00,
2013-04-25 23:21:00,27.0,20.0,30.36,WSW,258,7.0,13.0,74,0.00,,,0.00,,2013-04-26 06:21:00,
2013-04-25 23:32:00,27.0,20.0,30.35,West,259,7.0,13.0,73,0.00,,,0.00,,2013-04-26 06:32:00,
2013-04-25 23:41:00,27.0,20.0,30.35,West,259,7.0,13.0,73,0.00,,,0.00,,2013-04-26 06:41:00,
2013-04-25 23:52:00,27.0,20.0,30.35,NW,313,3.0,10.0,74,0.00,,,0.00,,2013-04-26 06:52:00,